Weather History for Grand Forks, ND

Change the Weather History Date:

Monday, January 13, 2014

  Actual Average Record
Temperature  
Mean Temperature 20 °F 6 °F  
Max Temperature 24 °F 16 °F 41 °F (1942)
Min Temperature 16 °F -3 °F -38 °F (2009)
Degree Days  
Heating Degree Days 45 59  
Month to date heating degree days 839 759  
Since 1 July heating degree days 4958 4618  
Cooling Degree Days 0 0  
Month to date cooling degree days 0 0  
Year to date cooling degree days 0 0  
Moisture  
Dew Point 13 °F    
Average Humidity 78    
Maximum Humidity 88    
Minimum Humidity 67    
Precipitation  
Precipitation 0.04 in 0.02 in 0.68 in (1971)
Month to date precipitation 0.13 0.25  
Year to date precipitation 0.13 0.25  
Snow  
Snow 1.10 in 0.40 in 6.80 in (1971)
Month to date snowfall 2.5 4.8  
Since 1 July snowfall 26.9 24.7  
Snow Depth 8.00 in    
Sea Level Pressure  
Sea Level Pressure 29.61 in    
Wind  
Wind Speed 8 mph (North)    
Max Wind Speed 21 mph    
Max Gust Speed 24 mph    
Visibility 7 miles    
Events Snow    
T = Trace of Precipitation, MM = Missing Value Source: NWS Daily Summary

Daily Weather History Graph

Daily Weather History Graph

Search for Another Location

Airport:

Trip Planner

Search our weather history database for the weather conditions in past years. The results will help you decide how hot, cold, wet, or windy it might be!

Date:

Astronomy

Jan. 13, 2014 Rise Set
Actual Time 8:14 AM CST 5:00 PM CST
Civil Twilight 7:39 AM CST 5:35 PM CST
Nautical Twilight 7:00 AM CST 6:14 PM CST
Astronomical Twilight 6:23 AM CST 6:51 PM CST
Moon 3:18 PM CST (1/13) 6:03 AM CST (1/13)
Length of Visible Light 9h 56m
Length of Day
8h 46m
Waxing Gibbous, 95% of the Moon is Illuminated
Jan 13
Waxing Gibbous
Jan 15
Full
Jan 23
Last Quarter
Jan 30
New
Feb 6
First Quarter

Hourly Weather History & Observations

Time (CST) Temp. Windchill Dew Point Humidity Pressure Visibility Wind Dir Wind Speed Gust Speed Precip Events Conditions
12:53 AM 21.0 °F 13.4 °F 16.0 °F 81% 29.56 in 10.0 mi NW 5.8 mph - N/A   Mostly Cloudy
1:53 AM 21.0 °F 8.1 °F 16.0 °F 81% 29.57 in 10.0 mi West 13.8 mph - N/A   Clear
2:53 AM 19.9 °F 5.2 °F 14.0 °F 78% 29.60 in 10.0 mi West 17.3 mph - N/A   Clear
3:53 AM 21.0 °F 7.6 °F 15.1 °F 78% 29.60 in 10.0 mi WNW 15.0 mph - N/A   Overcast
4:53 AM 21.0 °F 7.6 °F 15.1 °F 78% 29.59 in 10.0 mi West 15.0 mph - N/A   Overcast
5:53 AM 21.0 °F 7.1 °F 15.1 °F 78% 29.62 in 6.0 mi WNW 16.1 mph - 0.00 in Snow Light Snow
6:10 AM 19.9 °F 5.2 °F 15.1 °F 81% 29.58 in 6.0 mi WNW 17.3 mph - 0.00 in Snow Light Snow
6:53 AM 19.9 °F 7.3 °F 15.1 °F 81% 29.62 in 8.0 mi NW 12.7 mph - 0.00 in Snow Light Snow
7:15 AM 19.9 °F 11.1 °F 16.0 °F 85% 29.58 in 7.0 mi NNW 6.9 mph - 0.00 in Snow Light Snow
7:53 AM 19.0 °F 12.3 °F 15.1 °F 85% 29.63 in 6.0 mi North 4.6 mph - 0.00 in Snow Light Snow
8:32 AM 19.0 °F 13.9 °F 14.0 °F 81% 29.60 in 6.0 mi NNE 3.5 mph - 0.00 in Snow Light Snow
8:53 AM 18.0 °F 12.7 °F 14.0 °F 84% 29.65 in 8.0 mi NNW 3.5 mph - 0.00 in Snow Light Snow
9:31 AM 18.0 °F 9.8 °F 14.0 °F 84% 29.61 in 5.0 mi NNW 5.8 mph - 0.00 in Snow Light Snow
9:53 AM 18.0 °F 12.7 °F 14.0 °F 84% 29.66 in 5.0 mi NNW 3.5 mph - 0.00 in Snow Light Snow
10:50 AM 17.6 °F 8.2 °F 12.2 °F 79% 29.62 in 5.0 mi WNW 6.9 mph - 0.00 in Snow Light Snow
10:53 AM 18.0 °F 8.7 °F 12.0 °F 78% 29.67 in 6.0 mi WNW 6.9 mph - 0.00 in Snow Light Snow
11:36 AM 18.0 °F 11.1 °F 10.9 °F 74% 29.61 in 10.0 mi NW 4.6 mph - 0.00 in   Mostly Cloudy
11:53 AM 17.1 °F 8.7 °F 10.9 °F 77% 29.66 in 10.0 mi NW 5.8 mph - 0.00 in   Scattered Clouds
12:53 PM 19.9 °F 14.9 °F 10.9 °F 68% 29.63 in 10.0 mi NNW 3.5 mph - N/A   Partly Cloudy
1:53 PM 18.0 °F 9.8 °F 10.0 °F 71% 29.60 in 10.0 mi East 5.8 mph - N/A   Scattered Clouds
2:53 PM 17.1 °F 6.6 °F 10.0 °F 74% 29.58 in 10.0 mi East 8.1 mph - N/A   Scattered Clouds
3:53 PM 18.0 °F 7.7 °F 12.0 °F 78% 29.60 in 10.0 mi SE 8.1 mph - N/A   Overcast
4:53 PM 17.1 °F 8.7 °F 12.9 °F 84% 29.60 in 10.0 mi ESE 5.8 mph - N/A   Overcast
5:53 PM 17.1 °F 7.6 °F 12.0 °F 81% 29.60 in 10.0 mi ESE 6.9 mph - N/A   Overcast
6:53 PM 17.1 °F 7.6 °F 12.9 °F 84% 29.58 in 3.0 mi East 6.9 mph - 0.01 in Snow Light Snow
7:53 PM 17.1 °F 6.6 °F 12.0 °F 81% 29.59 in 10.0 mi NE 8.1 mph - 0.00 in   Overcast
8:53 PM 17.1 °F 7.6 °F 12.0 °F 81% 29.57 in 10.0 mi East 6.9 mph - N/A   Overcast
9:53 PM 16.0 °F 6.3 °F 10.9 °F 81% 29.61 in 3.0 mi ENE 6.9 mph - 0.00 in Snow Light Snow
10:07 PM 16.0 °F 7.4 °F 10.9 °F 81% 29.56 in 1.8 mi ENE 5.8 mph - 0.00 in Snow Light Snow
10:53 PM 16.0 °F 7.4 °F 12.0 °F 84% 29.64 in 1.0 mi NE 5.8 mph - 0.02 in Snow Light Snow
11:30 PM 16.0 °F 7.4 °F 12.0 °F 84% 29.59 in 2.0 mi ENE 5.8 mph - 0.01 in Snow Light Snow
11:46 PM 16.0 °F 7.4 °F 12.0 °F 84% 29.60 in 3.0 mi NE 5.8 mph - 0.01 in Snow Light Snow
11:50 PM 15.8 °F 6.1 °F 12.2 °F 86% 29.60 in 2.5 mi NE 6.9 mph - 0.01 in Snow Light Snow
11:53 PM 16.0 °F 6.3 °F 12.0 °F 84% 29.66 in 2.0 mi NE 6.9 mph - 0.01 in Snow Light Snow